Ukiah, CA

8:53 AM PDT on August 19, 2017 (GMT -0700)
Ukiah Municipal

Weather History for KUKI - February, 2013

Change the Weather History Date:

Friday, February 22, 2013

  Actual Average Record
Temperature  
Mean Temperature 48 °F 50 °F  
Max Temperature 64 °F 61 °F 78 °F (1995)
Min Temperature 32 °F 39 °F 20 °F (1920)
Degree Days  
Heating Degree Days 17 15  
Month to date heating degree days 373 348  
Since 1 July heating degree days 2041 2148  
Cooling Degree Days 0 0  
Month to date cooling degree days 0 0  
Year to date cooling degree days 0 0  
Moisture  
Dew Point 36 °F    
Average Humidity 63    
Maximum Humidity 89    
Minimum Humidity 36    
Precipitation  
Precipitation T in 0.26 in 1.84 in (1930)
Month to date precipitation 0.58 5.03  
Year to date precipitation 1.83 12.04  
Since 1 July precipitation 24.53  
Snow  
Snow 0.00 in - - ()
Month to date snowfall 0.0  
Since 1 July snowfall 0.0  
Snow Depth 0.00 in    
Sea Level Pressure  
Sea Level Pressure 30.23 in    
Wind  
Wind Speed 3 mph (North)    
Max Wind Speed 18 mph    
Max Gust Speed 24 mph    
Visibility 10 miles    
Events Rain    
T = Trace of Precipitation, MM = Missing Value Source: NWS Daily Summary

Daily Weather History Graph

Daily Weather History Graph

Search for Another Location

Airport or City:

Trip Planner

Search our weather history database for the weather conditions in past years. The results will help you decide how hot, cold, wet, or windy it might be!

Date:

Astronomy

Feb. 22, 2013 Rise Set
Actual Time 6:54 AM PST 5:58 PM PST
Civil Twilight 6:27 AM PST 6:25 PM PST
Nautical Twilight 5:56 AM PST 6:56 PM PST
Astronomical Twilight 5:25 AM PST 7:27 PM PST
Moon 3:15 PM PST (2/22) 4:42 AM PST (2/22)
Length of Visible Light 11h 57m
Length of Day
11h 03m
Waxing Gibbous, 91% of the Moon is Illuminated
Feb 22
Waxing Gibbous
Feb 25
Full
Mar 4
Last Quarter
Mar 11
New
Mar 19
First Quarter

Hourly Weather History & Observations

Time (PST) Temp. Windchill Dew Point Humidity Pressure Visibility Wind Dir Wind Speed Gust Speed Precip Events Conditions
12:56 AM 41.0 °F - 35.1 °F 79% 30.20 in 10.0 mi Calm Calm - N/A   Clear
1:56 AM 41.0 °F - 35.1 °F 79% 30.21 in 10.0 mi Calm Calm - N/A   Clear
2:56 AM 39.9 °F - 35.1 °F 83% 30.20 in 10.0 mi Calm Calm - N/A   Clear
3:56 AM 37.0 °F - 34.0 °F 89% 30.22 in 10.0 mi Calm Calm - N/A   Clear
4:56 AM 36.0 °F - 32.0 °F 86% 30.22 in 10.0 mi Calm Calm - N/A   Clear
5:56 AM 35.1 °F - 32.0 °F 89% 30.24 in 10.0 mi Calm Calm - N/A   Clear
6:56 AM 34.0 °F - 30.9 °F 89% 30.25 in 10.0 mi Calm Calm - N/A   Clear
7:56 AM 37.0 °F - 32.0 °F 82% 30.27 in 10.0 mi Calm Calm - N/A   Clear
8:56 AM 41.0 °F - 34.0 °F 76% 30.28 in 10.0 mi Calm Calm - N/A   Clear
9:56 AM 46.9 °F - 34.0 °F 61% 30.26 in 10.0 mi Calm Calm - N/A   Clear
11:56 AM 55.9 °F - 33.1 °F 42% 30.25 in 10.0 mi Calm Calm - N/A   Clear
12:56 PM 61.0 °F - 34.0 °F 36% 30.22 in 10.0 mi ENE 4.6 mph - N/A   Clear
1:56 PM 63.0 °F - 35.1 °F 35% 30.19 in 10.0 mi NNW 12.7 mph 18.4 mph N/A   Clear
2:56 PM 62.1 °F - 35.1 °F 37% 30.19 in 10.0 mi NW 8.1 mph - N/A   Clear
3:56 PM 61.0 °F - 36.0 °F 39% 30.18 in 10.0 mi NW 4.6 mph - N/A   Clear
4:56 PM 55.9 °F - 37.9 °F 51% 30.18 in 10.0 mi NNW 10.4 mph - N/A   Clear
5:56 PM 52.0 °F - 39.0 °F 61% 30.21 in 10.0 mi NNE 11.5 mph 17.3 mph N/A   Clear
6:56 PM 50.0 °F - 37.9 °F 63% 30.21 in 10.0 mi Variable 5.8 mph - N/A   Mostly Cloudy
7:56 PM 48.9 °F - 37.0 °F 64% 30.21 in 10.0 mi Calm Calm - N/A   Mostly Cloudy
8:56 PM 48.9 °F - 37.9 °F 66% 30.25 in 10.0 mi Variable 5.8 mph - N/A   Overcast
9:17 PM 48.2 °F - 37.4 °F 66% 30.26 in 10.0 mi North 11.5 mph 24.2 mph N/A   Overcast
9:56 PM 46.9 °F - 39.9 °F 77% 30.25 in 10.0 mi North 10.4 mph - 0.00 in Rain Light Rain
10:33 PM 46.4 °F 43.5 °F 39.2 °F 76% 30.25 in 10.0 mi North 5.8 mph - 0.00 in   Overcast
10:56 PM 46.9 °F - 39.0 °F 74% 30.23 in 10.0 mi North 4.6 mph - 0.00 in   Overcast
11:31 PM 46.4 °F - 39.2 °F 76% 30.22 in 10.0 mi Calm Calm - N/A   Overcast
11:47 PM 46.4 °F - 39.2 °F 76% 30.23 in 10.0 mi Calm Calm - N/A   Overcast
11:56 PM 46.9 °F - 39.9 °F 77% 30.22 in 10.0 mi Calm Calm - N/A   Overcast